Regional Weather Roundup
Issued by NWS

Home | Current Version | Previous Version | Text Only | Print | Product List | Glossary Off
Versions: 1 2 3 4 5 6 7 8 9 10 11 12 13 14 15 16 17 18 19 20 21 22 23 24 25 26 27

000
ASUS45 KGTF 051110
RWRMT
MONTANA HOURLY WEATHER ROUNDUP
NATIONAL WEATHER SERVICE GREAT FALLS MT
500 AM MDT TUE MAY 05 2015

NOTE: "FAIR" INDICATES FEW OR NO CLOUDS BELOW 12000 FEET WITH NO
SIGNIFICANT WEATHER AND/OR OBSTRUCTIONS TO VISIBILITY.

MTZ001>007-043-051200-
WEST OF THE DIVIDE

CITY           SKY/WX    TMP DP  RH WIND       PRES   REMARKS
KALISPELL      CLOUDY    47  38  71 SE8       29.82R
MISSOULA       LGT RAIN  50  37  61 VRB3      29.84F
BUTTE          MOCLDY    37  29  72 SE3       29.87S
DEER LODGE       N/A     43  30  61 W7        29.88F
EUREKA           N/A     46  30  53 CALM      29.79R
HAMILTON         N/A     48  34  57 E16       29.80F
LIBBY            N/A     39  30  70 CALM      29.82R
$$

MTZ008-052>055-051200-
SOUTHWEST MONTANA

CITY           SKY/WX    TMP DP  RH WIND       PRES   REMARKS
BOZEMAN        CLEAR     40  35  83 S7        29.83F
DILLON         CLEAR     48  32  53 S10       29.84F
$$

MTZ009-010-012-014-046-048-049-054-051200-
EAST SLOPES AND CENTRAL MONTANA

CITY           SKY/WX    TMP DP  RH WIND       PRES   REMARKS
CUT BANK       CLOUDY    56  34  43 W16       29.77F
GREAT FALLS    PTCLDY    50  34  54 S6        29.75F
MALMSTROM AFB  PTCLDY    47  35  62 S3        29.75F
HELENA         PTCLDY    48  28  46 CALM      29.80R
$$

MTZ011-013-016-021-045-047-050-051-051200-
NORTH CENTRAL MONTANA

CITY           SKY/WX    TMP DP  RH WIND       PRES   REMARKS
HAVRE          PTCLDY    42  37  82 CALM      29.74S
LEWISTOWN      CLEAR     42  35  76 SE8       29.81F
CHINOOK          N/A     48  43  81 E6        29.75S
FORT BENTON      N/A     45  37  76 W3        29.76S
$$

MTZ017>020-022>042-056>058-061-062-051200-
EASTERN PLAINS

CITY           SKY/WX    TMP DP  RH WIND       PRES   REMARKS
BAKER          CLEAR     41  30  65 SE10      29.94F
BILLINGS       PTCLDY    47  41  80 NW3       29.82F
GLASGOW        PTCLDY    45  34  65 E17       29.82F
JORDAN           N/A     50  38  63 SE13      29.82F
LIVINGSTON     CLEAR     37  34  89 NW5       29.85F
MILES CITY     CLEAR     50  34  54 SE16      29.86F
SIDNEY         CLEAR     43  28  56 CALM      29.94F
WOLF POINT     CLEAR     47  35  63 NE6       29.89F
BIG TIMBER       N/A     45  37  76 W5        29.86S
FORSYTH          N/A     48  37  66 E5        29.83F
PLENTYWOOD       N/A     45  30  57 SE9       29.92F
POPLAR           N/A     46  34  61 NE3       29.89F
$$

REGIONAL REPORTS...DAKOTAS

CITY           SKY/WX    TMP DP  RH WIND       PRES   REMARKS
WILLISTON      CLEAR     50  27  40 SW6       29.96F
MINOT          CLOUDY    54  28  36 SE15G29   30.03F
DICKINSON      CLEAR     40  27  59 SE5       29.98F
BEACH          FAIR      41  28  60 SE14      29.95F
CROSBY         FAIR      48  30  49 S14       29.97F
WATFORD CITY   FAIR      50  25  37 SE15G22   29.95F
BISMARCK       PTCLDY    51  28  41 SE13      30.07F
GRAND FORKS    CLEAR     40  25  55 SE7       30.16S
FARGO          FAIR      47  29  49 SE8       30.17S
BUFFALO SD       N/A     42  28  57 SE13      29.91F
RAPID CITY     CLEAR     40  34  79 SE6       30.02S
$$

REGIONAL REPORTS...WYOMING/IDAHO/WASHINGTON

CITY           SKY/WX    TMP DP  RH WIND       PRES   REMARKS
GILLETTE       CLEAR     43  36  76 S15       29.94S
SHERIDAN       PTCLDY    42  39  89 CALM      29.87F
BUFFALO WY     PTCLDY    43  40  89 SE6       29.90F
CODY           PTCLDY    48  37  66 SE13      29.89S
YELLOWSTONE LA   N/A     29  26  89 CALM      30.04F
IDAHO FALLS    CLEAR     42  39  89 NW6       29.87S
SALMON           N/A     41  34  75 CALM      29.85R
BOISE          MOCLDY    57  35  43 NW9       29.80R
SPOKANE        PTCLDY    45  32  60 S13       29.88R
$$

REGIONAL REPORTS...ALBERTA

CITY           SKY/WX    TMP DP  RH WIND       PRES   REMARKS
EDMONTON       PTCLDY    45  30  57 E14G20    29.77R
CALGARY        PTCLDY    45  23  42 SW7       29.67S
LETHBRIDGE     CLEAR     46  28  49 SW14G20   29.71S
MEDICINE HAT   CLEAR     41  30  65 S6        29.69S
$$

REGIONAL REPORTS...SASKATCHEWAN

CITY           SKY/WX    TMP DP  RH WIND       PRES   REMARKS
SWIFT CURRENT  CLEAR     46  39  76 S18       29.74F
REGINA         PTCLDY    46  37  71 SE9       29.91S
SASKATOON      PTCLDY    43  36  75 NE10      29.84F
$$



USA.gov is the U.S. government's official web portal to all federal, state and local government web resources and services.